Location: Fredericton
(45.9636°N, 66.6431°W)
Time: 06:16:20
(UTC-03:00)

Envisat - Pass Details

Date: 22 January 2022
Orbit: 764 x 765 km, 98.2° (Epoch: 17 May)

Event Time Altitude Azimuth Distance (km) Brightness Sun altitude
Rises 04:27:52 0° 24° (NNE) 3,241 6.6 -36.4°
Reaches altitude 10° 04:30:32 10° 36° (NE) 2,310 5.9 -36.0°
Maximum altitude 04:34:48 27° 94° (E) 1,454 4.9 -35.3°
Drops below altitude 10° 04:39:03 10° 151° (SSE) 2,296 5.7 -34.5°
Sets 04:41:41 0° 163° (SSE) 3,217 6.3 -34.1°
